Location: 22
(39.7117°N, 89.5929°W)
Time: 03:50:51
(UTC-06:00)

Vanguard 3 - Visible Passes

Search period start: 31 January 2023 00:00
Search period end: 10 February 2023 00:00
Orbit: 509 x 3252 km, 33.4° (Epoch: 30 January)

Date Brightness Start Highest point End Pass type
(mag) Time Alt. Az. Time Alt. Az. Time Alt. Az.
31 Jan11.501:06:59SE01:06:59SE00:27:09Wvisible
31 Jan 11.0 03:11:26 16° S 03:11:26 16° S 03:14:31 10° S visible
31 Jan 9.4 18:49:47 10° SW 18:58:56 47° SSE 19:07:09 27° E visible
31 Jan 9.5 21:00:22 10° WSW 21:11:36 67° SSW 21:11:36 67° SSW visible
31 Jan 10.9 23:12:58 10° W 23:16:03 21° W 23:16:03 21° W visible
01 Feb 9.6 17:36:23 10° SSW 17:43:32 31° SE 17:54:45 10° E visible
01 Feb 9.3 19:45:29 10° WSW 19:55:48 62° SSE 20:00:28 47° ESE visible
01 Feb 10.0 21:57:04 10° W 22:04:55 46° WSW 22:04:55 46° WSW visible
02 Feb 11.3 02:54:01 10° S 02:54:01 10° S 02:54:12 10° S visible
02 Feb 9.3 18:31:15 10° SW 18:39:37 48° SSE 18:49:19 21° E visible
02 Feb 9.3 20:41:45 10° WSW 20:53:14 68° S 20:53:45 68° SSE visible
02 Feb 10.6 22:54:02 10° W 22:58:12 25° W 22:58:12 25° W visible
03 Feb 9.2 19:26:59 10° WSW 19:36:25 62° SSE 19:42:35 39° ESE visible
03 Feb 9.7 21:38:20 10° W 21:47:02 53° WSW 21:47:02 53° WSW visible
03 Feb 11.2 23:51:24 10° W 23:51:28 10° W 23:51:28 10° W visible
04 Feb 9.1 18:12:47 10° SW 18:20:25 49° SSE 18:31:25 15° E visible
04 Feb 9.3 20:23:11 10° WSW 20:33:44 67° S 20:35:52 62° SE visible
04 Feb 10.4 22:35:12 10° W 22:40:18 30° W 22:40:18 30° W visible
05 Feb 9.0 19:08:32 10° WSW 19:17:10 62° S 19:24:41 31° ESE visible
05 Feb 9.5 21:19:41 10° W 21:29:08 58° SW 21:29:08 58° SW visible
05 Feb 11.0 23:32:30 10° W 23:33:34 13° W 23:33:34 13° W visible
06 Feb 9.0 17:54:21 10° SW 18:01:20 50° SSE 18:13:31 10° E visible
06 Feb 9.2 20:04:41 10° W 20:14:21 65° S 20:17:58 52° SE visible
06 Feb 10.2 22:16:27 10° W 22:22:24 34° WSW 22:22:24 34° WSW visible
07 Feb 8.9 18:50:07 10° WSW 18:58:00 61° S 19:06:48 24° ESE visible
07 Feb 9.4 21:01:06 10° W 21:11:14 59° SSW 21:11:14 59° SSW visible
07 Feb 10.9 23:13:46 10° W 23:15:41 16° W 23:15:41 16° W visible
08 Feb 8.8 17:35:59 10° SW 17:42:20 50° SSE 17:53:30 10° E visible
08 Feb 9.1 19:46:15 10° W 19:55:04 63° S 20:00:06 42° SE visible
08 Feb 10.0 21:57:49 10° W 22:04:32 38° WSW 22:04:32 38° WSW visible
09 Feb 8.8 18:31:46 10° WSW 18:38:56 60° S 18:48:58 17° ESE visible
09 Feb 9.3 20:42:36 10° W 20:52:20 55° SSW 20:53:25 54° S visible
09 Feb 10.7 22:55:10 10° W 22:57:52 18° WSW 22:57:52 18° WSW visible
